This is the latest recevied weather packets stored in our database for station/object PA2JOK. If no packets are shown the sender has not sent any weather packets the latest 1 day(s).
| Time | Temp. | Humidity | Pressure | Rain* | Wind** | Luminosity | Snow |
|---|---|---|---|---|---|---|---|
| 1777968182 | 8.89° C | 86% | 1011.5 hPa | 0 mm | 3.58 m/s, 102° | - | - |
| 1777967283 | 8.89° C | 86% | 1011.5 hPa | 0 mm | 1.79 m/s, 115° | - | - |
| 1777966383 | 8.89° C | 87% | 1011.3 hPa | 0 mm | 1.79 m/s, 71° | - | - |
| 1777965483 | 8.89° C | 87% | 1011.4 hPa | 0 mm | 1.79 m/s, 57° | - | - |
| 1777964582 | 8.89° C | 88% | 1011.4 hPa | 0 mm | 2.68 m/s, 74° | - | - |
| 1777963682 | 8.89° C | 88% | 1011.5 hPa | 0 mm | 1.79 m/s, 85° | - | - |
| 1777962783 | 8.89° C | 89% | 1011.5 hPa | 0 mm | 0.89 m/s, 185° | - | - |
| 1777961884 | 8.89° C | 89% | 1011.6 hPa | 0 mm | 0.89 m/s, 108° | - | - |
| 1777960982 | 8.89° C | 89% | 1011.8 hPa | 0 mm | 1.79 m/s, 98° | - | - |
| 1777960083 | 8.89° C | 88% | 1011.8 hPa | 0 mm | 0.89 m/s, 114° | - | - |
| 1777959183 | 8.89° C | 88% | 1011.8 hPa | 0 mm | 2.68 m/s, 58° | - | - |
| 1777958283 | 8.89° C | 88% | 1011.6 hPa | 0 mm | 2.68 m/s, 91° | - | - |
| 1777957383 | 8.89° C | 87% | 1011.4 hPa | 0 mm | 0 m/s | - | - |
| 1777956483 | 8.89° C | 87% | 1011.1 hPa | 0 mm | 0 m/s | - | - |
| 1777955583 | 9.44° C | 87% | 1011.1 hPa | 0 mm | 0.89 m/s, 85° | - | - |
| 1777954683 | 9.44° C | 87% | 1011.2 hPa | 0 mm | 0.89 m/s, 158° | - | - |
| 1777953784 | 9.44° C | 87% | 1011.3 hPa | 0 mm | 0 m/s | - | - |
| 1777952883 | 10° C | 86% | 1011.4 hPa | 0 mm | 0 m/s | - | - |
| 1777951983 | 10° C | 86% | 1011.4 hPa | 0 mm | 0 m/s | - | - |
| 1777951082 | 10° C | 86% | 1011.4 hPa | 0 mm | 0 m/s | - | - |
| 1777950183 | 10° C | 85% | 1011.4 hPa | 0 mm | 0 m/s | - | - |
| 1777949282 | 10° C | 85% | 1011.4 hPa | 0 mm | 1.79 m/s, 7° | - | - |
| 1777948383 | 10° C | 85% | 1011.5 hPa | 0 mm | 0 m/s | - | - |
* Rain latest hour (hover to see other rain measurements)
** Current wind speed in m/s (hover to see current wind gust speed)